Regional Weather Roundup
Issued by NWS San Angelo, TX

Home | Current Version | Previous Version | Text Only | Print | Product List | Glossary On
Versions: 1 2 3 4 5 6 7 8 9 10 11 12 13 14 15 16 17 18 19 20 21 22 23 24 25 26 27 28 29 30 31 32 33 34 35 36 37 38 39 40 41 42 43 44 45 46 47 48 49 50
239
ASUS44 KSJT 221510
RWRSJT
WEST CENTRAL TEXAS REGIONAL WEATHER ROUNDUP
NATIONAL WEATHER SERVICE SAN ANGELO TX
1000 AM CDT FRI SEP 22 2017

NOTE: "FAIR" INDICATES FEW OR NO CLOUDS BELOW 12,000 FEET WITH NO
SIGNIFICANT WEATHER AND/OR OBSTRUCTIONS TO VISIBILITY.

TXZ049-054-064>066-071>073-076>078-098-099-113-114-127-128-139-140-
154-155-168>170-221600
...LOCATIONS ACROSS WEST CENTRAL TEXAS...

CITY           SKY/WX    TMP DP  RH WIND       PRES   REMARKS
SAN ANGELO     MOSUNNY   81  66  60 S16G23    29.95R
ABILENE        MOSUNNY   78  69  73 S16G26    29.96S
DYESS AFB      MOSUNNY   80  69  69 S20G28    29.95R
JUNCTION       MOSUNNY   79  68  69 S9        29.98R
SWEETWATER     SUNNY     78  68  69 S20G25    29.99R
BROWNWOOD      PTSUNNY   81  70  69 S9G16     29.98R
COLEMAN        PTSUNNY   78  68  71 S15       29.98R
SONORA         PTSUNNY   79  66  65 S17G24    30.01S
OZONA          CLOUDY    75  66  73 S15G22    30.00S
BRADY          NOT AVBL
$$

TEXAS PANHANDLE/OKLAHOMA PANHANDLE

CITY           SKY/WX    TMP DP  RH WIND       PRES   REMARKS
AMARILLO       SUNNY     76  65  68 S18       29.97S
BORGER         MOSUNNY   80  65  59 S18G30    29.93R
CANADIAN       SUNNY     79  67  66 SW8       29.92R
DALHART        MOSUNNY   76  64  66 S20       29.95R
DUMAS          SUNNY     75  63  66 S17G24    29.95S
GUYMON         NOT AVBL
HEREFORD       SUNNY     76  66  72 S21G26    29.98R
PAMPA          SUNNY     79  64  60 S22G28    29.96R
PERRYTON       SUNNY     78  65  63 S14       29.91R
$$

SOUTHERN PANHANDLE/SOUTH PLAINS/ROLLING PLAINS

CITY           SKY/WX    TMP DP  RH WIND       PRES   REMARKS
LUBBOCK        MOSUNNY   74  65  73 S17G25    29.97R
SNYDER         PTSUNNY   77  68  74 S17       29.97R
CHILDRESS      SUNNY     79  67  66 S14       29.95R
SEMINOLE       SUNNY     75  65  70 S17       29.98R
$$

PERMIAN BASIN

CITY           SKY/WX    TMP DP  RH WIND       PRES   REMARKS
MIDLAND        CLOUDY    77  66  68 S21G29    29.96R
ODESSA         CLOUDY    75  67  76 S16       29.96R
WINK           SUNNY     77  66  68 SE20G28   29.91R
$$

FAR WEST/SOUTHWEST MOUNTAINS/TRANS PECOS

CITY           SKY/WX    TMP DP  RH WIND       PRES   REMARKS
ALPINE         SUNNY     79  59  49 S9        30.07S
DRYDEN           N/A     77  69  76 SE15      29.93R
EL PASO        MOSUNNY   77  45  32 S6        29.94R
FORT STOCKTON  SUNNY     75  67  76 SE18G29   29.95R
GUADALUPE PASS SUNNY     73  55  53 SW9       30.07R
MARFA          SUNNY     73  60  63 VRB3      30.07S
PECOS          SUNNY     80  64  59 E15       29.89R
$$

DALLAS/FORT WORTH METROPLEX

CITY           SKY/WX    TMP DP  RH WIND       PRES   REMARKS
DFW AIRPORT    PTSUNNY   82  73  74 SE15      29.97R
FTW MEACHAM    MOSUNNY   83  73  72 S13       29.97S
DAL-EXECUTIVE  CLOUDY    79  73  82 S8        29.99R
GRAND PRAIRIE  CLOUDY    79  70  73 SE12      30.00R
ADDISON        CLOUDY    79  72  78 SE12      30.00R
MESQUITE       CLOUDY    77  54  44 S10       30.01R
LANCASTER      CLOUDY    77  71  81 S8        30.01R
$$

NORTH CENTRAL TEXAS

CITY           SKY/WX    TMP DP  RH WIND       PRES   REMARKS
SHRMAN/DENISON CLOUDY    78  71  80 S10       30.01R
GAINESVILLE    CLOUDY    78  70  77 S13       30.00S
BRIDGEPORT     MOSUNNY   80  70  72 S12       29.99R
DENTON         CLOUDY    79  72  79 S13       29.98S
WAXAHACHIE     CLOUDY    78  73  84 S12       30.01R
GRANBURY       CLOUDY    81  70  70 SE12G18   29.99R
$$

WESTERN NORTH TEXAS

CITY           SKY/WX    TMP DP  RH WIND       PRES   REMARKS
WICHITA FALLS  MOSUNNY   79  69  71 S16       29.94R
VERNON         MOSUNNY   80  66  60 S16       29.95R
BRECKENRIDGE   MOSUNNY   82  68  61 S17       29.96R
COMANCHE       CLOUDY    80  70  72 S14       29.99R
$$

CENTRAL AND SOUTH CENTRAL TEXAS

CITY           SKY/WX    TMP DP  RH WIND       PRES   REMARKS
AUSTIN/BERGSTM CLOUDY    79  74  84 SE5       29.97S
WACO           PTSUNNY   80  73  79 S9        29.99R
HILLSBORO      CLOUDY    78  73  84 S12       30.00R
TEMPLE         CLOUDY    77  73  87 SE10      30.00R
KILLEEN-GRAY   PTSUNNY   81  72  74 SE14      29.98R
FORT HOOD      CLOUDY    77  72  85 SE9       29.96S
GEORGETOWN     PTSUNNY   78  73  84 SE10      30.00S
LAGO VISTA     CLOUDY    79  74  84 SE8       30.00S
SAN MARCOS     PTSUNNY   80  75  84 S7        29.98R FOG
NEW BRAUNFELS  PTSUNNY   81  74  79 S8        29.96R
RANDOLPH AFB   PTSUNNY   80  76  85 S8        29.97R
SAN ANTONIO    PTSUNNY   81  72  74 S12       29.97R
STINSON        MOSUNNY   83  74  74 SE10      29.95R
PLEASANTON     NOT AVBL
LA GRANGE      SUNNY     83  77  83 SE5       29.96R
GIDDINGS       MOSUNNY   76  71  86 SE5       29.99R
$$

EAST TEXAS

CITY           SKY/WX    TMP DP  RH WIND       PRES   REMARKS
PARIS          CLOUDY    75  72  90 S8        30.04R
CLARKSVILLE    NOT AVBL
TYLER          MOSUNNY   79  72  79 VRB3      30.02S
LONGVIEW       PTSUNNY   75  74  96 CALM      30.03R
PALESTINE      CLOUDY    76  76 100 SE6       30.03R
NACOGDOCHES    PTSUNNY   76  74  93 S5        30.04R
$$

TEXAS HILL COUNTRY AND EDWARDS PLATEAU

CITY           SKY/WX    TMP DP  RH WIND       PRES   REMARKS
LLANO          PTSUNNY   84  72  65 E9        30.01R
HORSESHOE BAY  FAIR      82  72  71 S8        29.98S
KERRVILLE      PTSUNNY   76  73  87 S10       29.99R
FREDERICKSBRG  SUNNY     78  68  72 S12       30.00R
ROCKSPRINGS    NOT AVBL
HONDO          CLOUDY    83  73  72 SE12      29.96S
UVALDE         PTSUNNY   81  72  75 SE10      29.95S
DEL RIO        CLOUDY    79  72  79 SE14      29.91R
$$

SOUTHEAST TEXAS

CITY           SKY/WX    TMP DP  RH WIND       PRES   REMARKS
COLLEGE STN    MOSUNNY   81  76  84 SE6       29.99R
CALDWELL       CLOUDY    79  76  90 SE5       30.00R
CROCKETT       CLOUDY    75  75 100 SE5       30.05R
BRENHAM        PTSUNNY   80  79  97 SE5       29.99R
HUNTSVILLE     PTSUNNY   81  73  76 VRB5      30.01R
CONROE         SUNNY     81  74  79 S6        30.01R
HOUSTON BUSH   MOSUNNY   82  75  79 E6        29.99R
HOUSTON HOBBY  MOSUNNY   85  75  72 SE6       29.98R
PERLAND        MOSUNNY   85  74  69 SE7       30.00R
WHARTON        SUNNY     82  75  79 MISG      29.98R
$$

THE UPPER TEXAS COAST

CITY           SKY/WX    TMP DP  RH WIND       PRES   REMARKS
ORANGE         SUNNY     83  76  80 E5        30.02R
PORT ARTHUR    SUNNY     84  75  74 E9        29.99R
GALVESTON      MOSUNNY   86  75  69 E9        29.99R
ANGLETON       SUNNY     84  75  74 E6        29.97R
BAY CITY       MOSUNNY   84  76  77 E8        29.96R
$$

TEXAS COASTAL BEND, RIO GRANDE PLAINS DEEP SOUTH TEXAS

CITY           SKY/WX    TMP DP  RH WIND       PRES   REMARKS
VICTORIA       MOSUNNY   83  77  82 SE9       29.95R
BEEVILLE       FAIR      84  66  54 SE8       29.94R
ROCKPORT       MOSUNNY   84  75  74 SE12      29.93R
PORT ARANSAS   NOT AVBL
PORT LAVACA    PTSUNNY   81  76  84 E8        29.95R
CORPUS CHRISTI MOSUNNY   84  76  76 S12       29.92R
KINGSVILLE NAS MOSUNNY   86  79  79 S10       29.92R
COTULLA        MOSUNNY   84  71  65 SE14      29.92R
LAREDO         MOSUNNY   85  74  69 SE17G23   29.91S
BROWNSVILLE    SUNNY     85  78  80 SE13      29.91R
PORT ISABEL    MOSUNNY   86  76  71 S13       29.90R
HEBBRONVILLE   MOSUNNY   82  71  67 SE14      29.93S
MCALLEN        MOSUNNY   88  75  65 SE13      29.91R
WESLACO        MOSUNNY   86  74  68 S12       29.90R
FALFURRIAS     MOSUNNY  -38  32 100 SE12G17   29.91S WCI -65
EDINBURG       MOSUNNY   89  73  60 SE15      29.91R
$$




USA.gov is the U.S. government's official web portal to all federal, state and local government web resources and services.